Date,TemperatureHighF,TemperatureAvgF,TemperatureLowF,DewpointHighF,DewpointAvgF,DewpointLowF,HumidityHigh,HumidityAvg,HumidityLow,PressureMaxIn,PressureMinIn,WindSpeedMaxMPH,WindSpeedAvgMPH,GustSpeedMaxMPH,PrecipitationSumIn
2013-10-1,77.8,63.0,55.9,63.0,55.1,48.3,98,79,38,30.18,30.09,12,2,14,0.00
2013-10-2,80.5,62.1,51.2,64.1,53.1,47.8,98,76,38,30.21,30.12,10,2,10,0.00
2013-10-3,78.5,62.5,52.9,60.4,55.1,49.5,98,80,46,30.21,30.09,8,1,9,0.00
2013-10-4,84.8,65.6,54.8,65.3,58.0,53.1,98,80,39,30.21,30.12,10,1,10,0.00
2013-10-5,82.9,67.2,58.8,67.4,58.5,53.7,98,77,39,30.21,30.09,10,1,10,0.00
2013-10-6,81.3,66.6,57.0,66.7,58.0,54.5,98,77,44,30.12,29.94,16,2,17,0.00
2013-10-7,67.2,58.9,47.3,64.2,50.5,38.8,98,75,50,30.12,29.82,17,3,18,0.95
2013-10-8,70.5,52.4,39.2,47.7,41.3,36.2,98,70,35,30.27,30.12,6,0,6,0.00
2013-10-9,67.1,50.8,38.8,48.7,39.3,35.9,98,69,36,30.29,30.21,0,0,0,0.00
2013-10-10,69.7,58.5,49.1,59.7,52.7,40.0,98,82,63,30.21,30.03,0,0,0,0.03
2013-10-11,67.5,61.0,57.8,59.4,55.4,51.9,98,83,62,30.06,30.00,12,1,14,0.00
2013-10-12,71.6,62.2,57.1,63.2,58.0,53.5,98,87,65,30.18,30.03,7,0,8,0.03
2013-10-13,68.2,62.2,56.7,59.8,56.8,54.1,98,83,65,30.27,30.15,6,0,6,0.01
2013-10-14,72.5,62.5,57.7,60.1,56.9,53.7,98,83,53,30.29,30.18,8,1,9,0.09
2013-10-15,68.6,58.6,52.1,54.3,50.2,43.6,98,76,44,30.27,30.12,7,1,8,0.01
2013-10-16,67.5,56.8,47.1,54.7,49.9,45.5,98,79,57,30.12,29.97,9,1,10,0.00
2013-10-17,62.7,58.5,49.1,62.1,55.2,38.5,98,89,67,30.00,29.82,16,2,18,0.53
2013-10-18,65.8,51.8,42.8,38.9,35.5,32.7,75,55,32,30.06,29.97,17,3,18,0.01
2013-10-19,58.0,45.9,38.9,45.9,38.7,32.3,91,77,46,30.00,29.85,14,2,15,0.00
2013-10-20,59.9,45.2,36.7,33.9,29.5,26.8,71,55,35,30.09,29.97,14,3,16,0.00
2013-10-21,65.4,46.2,28.7,38.1,31.5,24.3,96,61,33,30.15,29.97,12,2,13,0.00
2013-10-22,55.0,43.8,35.7,46.6,35.7,30.2,98,74,52,29.97,29.85,14,2,15,0.01
2013-10-23,46.3,36.0,30.5,40.6,31.1,23.0,98,83,63,29.97,29.73,20,3,22,0.05
2013-10-24,42.0,34.1,28.7,27.8,24.0,20.9,79,67,48,30.12,29.94,14,4,15,0.01
2013-10-25,41.8,33.5,25.3,25.1,20.3,17.6,79,59,44,30.29,30.12,17,4,18,0.00
2013-10-26,52.0,39.9,21.2,28.7,22.3,16.8,96,53,33,30.29,29.97,18,4,20,0.00
2013-10-27,58.5,45.9,36.6,32.2,28.2,23.1,69,51,37,30.12,30.00,19,4,21,0.00
2013-10-28,58.3,42.7,28.9,42.5,34.0,24.0,92,73,48,30.27,30.12,12,1,13,0.00
2013-10-29,63.5,49.7,39.6,46.8,41.5,36.7,98,76,46,30.32,30.24,12,2,13,0.00
2013-10-30,55.5,52.1,49.4,55.0,49.5,43.3,98,91,74,30.27,30.18,4,0,5,0.15
2013-10-31,63.0,56.2,52.0,59.2,53.0,48.9,98,90,63,30.21,29.76,14,1,16,0.13